Time,TemperatureF,DewpointF,PressureIn,WindDirection,WindDirectionDegrees,WindSpeedMPH,WindSpeedGustMPH,Humidity,HourlyPrecipIn,Conditions,Clouds,dailyrainin,SoftwareType,DateUTC
2013-08-14 01:42:00,73.0,-99.9,-100.00,West,273,3.0,3.0,-999,-99.99,,,-99.99,,2013-08-14 05:42:00,
2013-08-14 02:30:00,71.0,-99.9,-100.00,North,7,1.0,2.0,-999,-99.99,,,-99.99,,2013-08-14 06:30:00,
2013-08-14 02:42:00,71.0,-99.9,-100.00,West,266,2.0,2.0,-999,-99.99,,,-99.99,,2013-08-14 06:42:00,
2013-08-14 02:52:00,72.0,-99.9,-100.00,West,259,1.0,1.0,-999,-99.99,,,-99.99,,2013-08-14 06:52:00,
2013-08-14 03:11:00,71.0,-99.9,-100.00,North,7,1.0,2.0,-999,-99.99,,,-99.99,,2013-08-14 07:11:00,
2013-08-14 03:20:00,68.0,-99.9,-100.00,SSW,207,0.0,2.0,-999,-99.99,,,-99.99,,2013-08-14 07:20:00,
2013-08-14 03:21:00,71.0,-99.9,-100.00,North,7,1.0,2.0,-999,-99.99,,,-99.99,,2013-08-14 07:21:00,
2013-08-14 03:52:00,69.0,-99.9,-100.00,ENE,61,4.0,4.0,-999,-99.99,,,-99.99,,2013-08-14 07:52:00,
2013-08-14 04:11:00,68.0,-99.9,-100.00,SSW,207,0.0,2.0,-999,-99.99,,,-99.99,,2013-08-14 08:11:00,
2013-08-14 06:20:00,66.0,-99.9,-100.00,South,174,0.0,0.0,-999,-99.99,,,-99.99,,2013-08-14 10:20:00,
2013-08-14 07:11:00,66.0,-99.9,-100.00,South,174,0.0,0.0,-999,-99.99,,,-99.99,,2013-08-14 11:11:00,
2013-08-14 09:11:00,65.0,-99.9,-100.00,WSW,257,0.0,1.0,-999,-99.99,,,-99.99,,2013-08-14 13:11:00,
2013-08-14 09:22:00,65.0,-99.9,-100.00,WSW,257,0.0,1.0,-999,-99.99,,,-99.99,,2013-08-14 13:22:00,
2013-08-14 12:13:00,77.0,-99.9,-100.00,West,266,3.0,6.0,-999,-99.99,,,-99.99,,2013-08-14 16:13:00,
2013-08-14 12:28:00,79.0,-99.9,-100.00,West,275,6.0,6.0,-999,-99.99,,,-99.99,,2013-08-14 16:28:00,
2013-08-14 12:34:00,79.0,-99.9,-100.00,West,275,6.0,6.0,-999,-99.99,,,-99.99,,2013-08-14 16:34:00,
2013-08-14 12:43:00,79.0,-99.9,-100.00,West,275,6.0,6.0,-999,-99.99,,,-99.99,,2013-08-14 16:43:00,
2013-08-14 12:55:00,81.0,-99.9,-100.00,WNW,285,3.0,4.0,-999,-99.99,,,-99.99,,2013-08-14 16:55:00,
2013-08-14 13:44:00,81.0,-99.9,-100.00,WNW,285,3.0,4.0,-999,-99.99,,,-99.99,,2013-08-14 17:44:00,
2013-08-14 15:03:00,83.0,-99.9,-100.00,West,273,3.0,4.0,-999,-99.99,,,-99.99,,2013-08-14 19:03:00,
2013-08-14 15:59:00,86.0,-99.9,-100.00,WNW,302,3.0,5.0,-999,-99.99,,,-99.99,,2013-08-14 19:59:00,
2013-08-14 16:12:00,88.0,-99.9,-100.00,WNW,295,2.0,4.0,-999,-99.99,,,-99.99,,2013-08-14 20:12:00,
2013-08-14 18:30:00,91.0,-99.9,-100.00,NNW,338,2.0,3.0,-999,-99.99,,,-99.99,,2013-08-14 22:30:00,
2013-08-14 19:13:00,90.0,-99.9,-100.00,NW,304,1.0,4.0,-999,-99.99,,,-99.99,,2013-08-14 23:13:00,
2013-08-14 19:25:00,91.0,-99.9,-100.00,NNW,338,2.0,3.0,-999,-99.99,,,-99.99,,2013-08-14 23:25:00,
2013-08-14 21:22:00,82.0,-99.9,-100.00,West,275,5.0,6.0,-999,-99.99,,,-99.99,,2013-08-15 01:22:00,
2013-08-14 21:32:00,82.0,-99.9,-100.00,West,275,5.0,6.0,-999,-99.99,,,-99.99,,2013-08-15 01:32:00,
2013-08-14 22:40:00,72.0,-99.9,-100.00,NW,325,4.0,4.0,-999,-99.99,,,-99.99,,2013-08-15 02:40:00,
2013-08-14 23:11:00,73.0,-99.9,-100.00,WNW,287,5.0,8.0,-999,-99.99,,,-99.99,,2013-08-15 03:11:00,
2013-08-14 23:22:00,72.0,-99.9,-100.00,NW,325,4.0,4.0,-999,-99.99,,,-99.99,,2013-08-15 03:22:00,
2013-08-14 23:33:00,72.0,-99.9,-100.00,NW,325,4.0,4.0,-999,-99.99,,,-99.99,,2013-08-15 03:33:00,
2013-08-14 23:50:00,69.0,-99.9,-100.00,ENE,72,4.0,6.0,-999,-99.99,,,-99.99,,2013-08-15 03:50:00,